Terminal Aerodrome Forecast
Issued by NWS Columbia, SC

Home | Current Version | Previous Version | Text Only | Print | Product List | Glossary On
Versions: 1 2 3 4 5 6 7 8 9 10 11 12 13 14 15 16 17 18 19 20 21 22 23 24 25 26 27 28 29
000
FTUS42 KCAE 220800 AAA
TAFCAE
TAF AMD
KCAE 220813Z 2208/2306 VRB03KT P6SM SCT200
     FM221600 28007KT P6SM FEW060 SCT200
     FM230000 VRB03KT P6SM SCT200=

USA.gov is the U.S. government's official web portal to all federal, state and local government web resources and services.